Location: Unspecified
(0.0000°N, 0.0000°E)
Time: 16:12:03
(UTC+02:00)

Hubble Space Telescope - Visible Passes

Search period start: 31 May 2016 00:00
Search period end: 10 June 2016 00:00
Orbit: 539 x 543 km, 28.5° (Epoch: 31 May)

Date Brightness Start Highest point End Pass type
(mag) Time Alt. Az. Time Alt. Az. Time Alt. Az.
31 May 2.4 20:33:12 10° NNW 20:36:35 24° NNE 20:39:59 10° E visible
31 May 3.1 22:13:46 10° WNW 22:15:25 22° W 22:15:25 22° W visible
01 Jun 1.9 20:23:11 10° NW 20:26:57 34° NNE 20:30:44 10° E visible
01 Jun 2.8 22:04:21 10° W 22:06:26 24° WSW 22:06:26 24° WSW visible
02 Jun 2.7 21:55:05 10° W 21:57:28 22° SW 21:57:28 22° SW visible
03 Jun 3.3 06:30:07 10° SSE 06:31:09 11° SSE 06:32:11 10° SE visible
03 Jun 2.9 21:46:00 10° WSW 21:48:30 18° SW 21:48:30 18° SW visible
04 Jun 3.0 06:21:06 15° SSE 06:21:35 15° SSE 06:23:58 10° ESE visible
04 Jun 3.1 21:37:17 10° WSW 21:39:19 13° SSW 21:39:33 13° SSW visible
05 Jun 2.7 06:12:09 20° SSE 06:12:09 20° SSE 06:15:05 10° ESE visible
06 Jun 2.5 06:03:10 26° SE 06:03:10 26° SE 06:05:57 10° E visible
07 Jun 2.5 05:54:11 29° ESE 05:54:11 29° ESE 05:56:36 10° E visible
07 Jun 2.1 07:30:15 10° W 07:33:54 30° NNW 07:37:33 10° NNE visible
08 Jun 2.8 05:45:11 26° E 05:45:11 26° E 05:47:08 10° ENE visible
08 Jun 2.5 07:21:04 10° W 07:24:16 21° NNW 07:27:28 10° NNE visible
09 Jun 3.3 05:36:08 20° ENE 05:36:08 20° ENE 05:37:31 10° ENE visible
09 Jun 2.9 07:12:07 10° WNW 07:14:39 16° NNW 07:17:11 10° N visible
